Location: Brunsen
(51.8651°N, 9.8610°E)
Time: 14:36:51
(UTC+00:00)

SL-16 DEB - Visible Passes

Search period start: 04 October 2024 00:00
Search period end: 14 October 2024 00:00
Orbit: 785 x 794 km, 71.0° (Epoch: 03 October)

Date Brightness Start Highest point End Pass type
(mag) Time Alt. Az. Time Alt. Az. Time Alt. Az.
04 Oct ? 02:03:00 10° ESE 02:03:57 10° E 02:04:54 10° E visible
04 Oct ? 03:40:26 10° SSW 03:45:44 61° ESE 03:51:04 10° NE visible
05 Oct ? 03:10:28 12° S 03:15:08 45° ESE 03:20:16 10° NE visible
05 Oct ? 04:53:06 10° WSW 04:58:09 39° NW 05:03:14 10° NNE visible
06 Oct ? 02:41:18 18° SSE 02:44:33 33° ESE 02:49:22 10° NE visible
06 Oct ? 04:22:05 10° SW 04:27:18 50° NW 04:32:35 10° NNE visible
07 Oct ? 02:12:00 20° SE 02:14:00 25° ESE 02:18:20 10° NE visible
07 Oct ? 03:52:46 20° SW 03:56:29 65° NW 04:01:54 10° NNE visible
08 Oct ? 01:42:35 18° ESE 01:43:30 18° E 01:47:05 10° ENE visible
08 Oct ? 03:23:20 35° SSW 03:25:42 85° WNW 03:31:10 10° NNE visible
09 Oct ? 01:13:03 13° E 01:13:03 13° E 01:15:27 10° ENE visible
09 Oct ? 02:53:48 54° S 02:54:58 73° ESE 03:00:22 10° NNE visible
09 Oct ? 04:34:32 13° W 04:38:24 28° NW 04:43:02 10° NNE visible
10 Oct ? 02:24:10 54° ESE 02:24:14 54° ESE 02:29:30 10° NE visible
10 Oct ? 04:04:54 23° W 04:07:24 34° NW 04:12:21 10° NNE visible
11 Oct ? 01:54:28 37° E 01:54:28 37° E 01:58:34 10° NE visible
11 Oct ? 03:35:11 37° W 03:36:27 43° NW 03:41:36 10° NNE visible
12 Oct ? 01:24:41 24° ENE 01:24:41 24° ENE 01:27:31 10° NE visible
12 Oct ? 03:05:24 55° WNW 03:05:31 55° NW 03:10:51 10° NNE visible
12 Oct ? 04:46:08 10° WNW 04:49:39 17° NNW 04:53:12 10° N visible
13 Oct ? 00:54:50 16° ENE 00:54:50 16° ENE 00:56:19 10° NE visible
13 Oct ? 02:35:33 59° N 02:35:33 59° N 02:40:02 10° NNE visible
13 Oct ? 04:16:17 16° WNW 04:18:29 20° NW 04:22:29 10° NNE visible
